Weather History for Lafayette, LA

Change the Weather History Date:

Saturday, May 4, 2013

  Actual Average Record
Temperature  
Mean Temperature 59 °F 74 °F  
Max Temperature 73 °F 84 °F 95 °F (1952)
Min Temperature 44 °F 64 °F 44 °F (1954)
Degree Days  
Heating Degree Days 6    
Cooling Degree Days 0 9  
Month to date cooling degree days 13 34  
Year to date cooling degree days 185 288  
Growing Degree Days 8 (Base 50)    
Moisture  
Dew Point 43 °F    
Average Humidity 60    
Maximum Humidity 93    
Minimum Humidity 27    
Precipitation  
Precipitation 0.00 in 0.15 in 1.73 in (1944)
Month to date precipitation 0.83 0.57  
Year to date precipitation 27.22 18.41  
Sea Level Pressure  
Sea Level Pressure 29.97 in    
Wind  
Wind Speed 7 mph (SW)    
Max Wind Speed 20 mph    
Max Gust Speed 24 mph    
Visibility 10 miles    
Events      
T = Trace of Precipitation, MM = Missing Value Source: NWS Daily Summary

Daily Weather History Graph

Daily Weather History Graph

Search for Another Location

Airport:

Trip Planner

Search our weather history database for the weather conditions in past years. The results will help you decide how hot, cold, wet, or windy it might be!

Date:

Astronomy

May. 04, 2013 Rise Set
Actual Time 6:21 AM CDT 7:47 PM CDT
Civil Twilight 5:56 AM CDT 8:13 PM CDT
Nautical Twilight 5:25 AM CDT 8:44 PM CDT
Astronomical Twilight 4:54 AM CDT 9:16 PM CDT
Moon 2:58 AM CDT (5/4) 3:06 PM CDT (5/4)
Length of Visible Light 14h 17m
Length of Day
13h 25m
Waning Crescent, 27% of the Moon is Illuminated
May 4
Waning Crescent
May 9
New
May 17
First Quarter
May 24
Full
May 31
Last Quarter

Hourly Weather History & Observations

Time (CDT) Temp. Windchill Dew Point Humidity Pressure Visibility Wind Dir Wind Speed Gust Speed Precip Events Conditions
12:53 AM 48.9 °F - 44.1 °F 83% 30.05 in 10.0 mi Calm Calm - N/A   Clear
1:53 AM 46.9 °F - 43.0 °F 86% 30.03 in 10.0 mi Calm Calm - N/A   Clear
2:53 AM 44.1 °F 42.5 °F 42.1 °F 93% 30.01 in 10.0 mi SSW 3.5 mph - N/A   Clear
3:53 AM 46.9 °F - 43.0 °F 86% 30.02 in 10.0 mi South 4.6 mph - N/A   Clear
4:53 AM 46.9 °F - 44.1 °F 90% 30.01 in 10.0 mi South 3.5 mph - N/A   Clear
5:53 AM 46.0 °F - 43.0 °F 89% 30.01 in 10.0 mi Calm Calm - N/A   Clear
6:53 AM 46.9 °F - 44.1 °F 90% 30.03 in 10.0 mi Calm Calm - N/A   Clear
7:53 AM 51.1 °F - 46.0 °F 83% 30.04 in 8.0 mi SSW 3.5 mph - N/A   Clear
8:53 AM 55.9 °F - 43.0 °F 62% 30.03 in 10.0 mi Calm Calm - N/A   Clear
9:53 AM 62.1 °F - 37.0 °F 39% 30.04 in 10.0 mi WSW 10.4 mph - N/A   Clear
10:53 AM 64.9 °F - 33.1 °F 31% 30.04 in 10.0 mi West 11.5 mph 16.1 mph N/A   Clear
11:53 AM 68.0 °F - 35.1 °F 30% 30.02 in 10.0 mi West 10.4 mph - N/A   Clear
12:53 PM 69.1 °F - 35.1 °F 29% 29.99 in 10.0 mi Variable 6.9 mph 19.6 mph N/A   Clear
1:53 PM 71.1 °F - 37.0 °F 29% 29.96 in 10.0 mi SW 6.9 mph 17.3 mph N/A   Clear
2:53 PM 73.0 °F - 37.0 °F 27% 29.93 in 10.0 mi SW 10.4 mph 19.6 mph N/A   Clear
3:53 PM 72.0 °F - 39.9 °F 31% 29.91 in 10.0 mi SW 17.3 mph 23.0 mph N/A   Clear
4:53 PM 72.0 °F - 43.0 °F 35% 29.90 in 10.0 mi SW 13.8 mph 21.9 mph N/A   Clear
5:53 PM 70.0 °F - 43.0 °F 38% 29.88 in 10.0 mi SW 13.8 mph 23.0 mph N/A   Clear
6:53 PM 68.0 °F - 46.0 °F 45% 29.88 in 10.0 mi SSW 18.4 mph 23.0 mph N/A   Clear
7:53 PM 64.9 °F - 48.0 °F 54% 29.90 in 10.0 mi SW 11.5 mph - N/A   Clear
8:53 PM 63.0 °F - 50.0 °F 63% 29.91 in 10.0 mi SSW 6.9 mph - N/A   Clear
9:53 PM 61.0 °F - 51.1 °F 70% 29.92 in 10.0 mi SW 5.8 mph - N/A   Clear
10:53 PM 59.0 °F - 52.0 °F 78% 29.92 in 10.0 mi SSW 5.8 mph - N/A   Clear
11:53 PM 59.0 °F - 52.0 °F 78% 29.92 in 10.0 mi SW 4.6 mph - N/A   Clear